Location: *
(41.0833°N, 73.4167°W)
Time: 14:06:36
(UTC+00:00)

Cosmos 1484 Rocket - Visible Passes

Search period start: 25 January 2020 00:00
Search period end: 04 February 2020 00:00
Orbit: 505 x 561 km, 97.4° (Epoch: 25 January)

Date Brightness Start Highest point End Pass type
(mag) Time Alt. Az. Time Alt. Az. Time Alt. Az.
29 Jan 5.4 09:52:16 10° NNE 09:52:25 11° NNE 09:52:25 11° NNE visible
30 Jan 5.4 09:42:45 10° NNE 09:43:03 12° NNE 09:43:03 12° NNE visible
31 Jan 5.4 09:33:18 10° NNE 09:33:42 13° NNE 09:33:42 13° NNE visible
01 Feb 5.5 09:23:54 10° NNE 09:24:21 13° NNE 09:24:21 13° NNE visible
01 Feb 4.8 10:59:15 10° NNW 10:59:45 12° NW 10:59:45 12° NW visible
02 Feb 5.6 09:14:33 10° NE 09:15:02 13° NE 09:15:02 13° NE visible
02 Feb 4.6 10:49:19 10° NNW 10:50:24 15° NW 10:50:24 15° NW visible
03 Feb 5.8 09:05:17 10° NE 09:05:42 12° NE 09:05:42 12° NE visible
03 Feb 4.3 10:39:30 10° NNW 10:41:04 19° NNW 10:41:04 19° NNW visible
